DATE/TIME(UTC),Outside Humidity (),Outside Temperature (),Lat. , Long.,Direction / Angle (),Direction / Angle (),Speed (ground - true North),Speed (Apparent),Barometric Pressure ()
Jul-15-2019 14:23:45,66.648,19.700000000000045,31.0833783,-122.6570316,342.2907163891051,217.35153958287782,17.183585313174948,12.09071274298056,1012
Jul-15-2019 14:24:00,67.052,20.250000000000057,31.0833266,-122.6569916,341.19063742245396,218.79539322660747,16.095032397408207,12.265658747300217,1012
Jul-15-2019 14:24:15,67.532,20.590000000000032,31.08327,-122.65695,346.69103225570984,214.2174604435122,16.48380129589633,10.321814254859612,1012
Jul-15-2019 14:24:30,67.776,20.840000000000032,31.083206599999997,-122.65691659999999,347.6937083971888,208.82592759133115,16.989200863930886,3.576673866090713,1012
Jul-15-2019 14:24:45,67.696,20.74000000000001,31.0831533,-122.65688999999999,345.5909532890587,208.34464304342129,16.989200863930886,6.473002159827214,1012
Jul-15-2019 14:25:00,67.776,20.660000000000025,31.083113299999997,-122.65687,343.3907953557563,209.11240648889657,15.181425485961126,9.330453563714903,1012
Jul-15-2019 14:25:15,67.696,20.30000000000001,31.083041599999998,-122.6568533,342.1933135639329,194.57073764847627,17.183585313174948,8.416846652267818,1012
Jul-15-2019 14:25:30,66.892,19.660000000000025,31.08297,-122.65684159999999,338.7899442608558,199.54401131021183,18.29157667386609,9.913606911447085,1012
Jul-15-2019 14:25:45,66.648,19.58000000000004,31.082896599999998,-122.65680499999999,344.1929362689395,205.89811325821265,18.29157667386609,10.205183585313176,1012
Jul-15-2019 14:26:00,66.808,19.630000000000052,31.082815,-122.65679,340.39422608722214,199.5153634204553,17.183585313174948,8.397408207343414,1012
Jul-15-2019 14:26:15,66.568,19.640000000000043,31.082735,-122.65675829999999,338.69254143568355,192.9320783544021,16.58099352051836,7.9697624190064795,1012
Jul-15-2019 14:26:30,66.248,19.660000000000025,31.082688299999997,-122.6567216,339.68948799921117,194.15820803598208,17.086393088552917,7.736501079913608,1012
Jul-15-2019 14:26:45,66.004,19.690000000000055,31.0826316,-122.6566833,339.7926204023347,206.80911615247066,17.980561555075592,11.177105831533478,1012
Jul-15-2019 14:27:00,65.84400000000001,19.750000000000057,31.0825616,-122.65665159999999,337.6898652942046,211.8626039055245,17.980561555075592,10.516198704103672,1012
Jul-15-2019 14:27:15,65.924,19.730000000000018,31.0824783,-122.65661329999999,339.7926204023347,212.02303208816116,15.99784017278618,8.358531317494599,1012
Jul-15-2019 14:27:30,66.164,19.690000000000055,31.082379999999997,-122.65657329999999,338.29147097909197,186.82434825830754,15.084233261339092,9.291576673866091,1012
Jul-15-2019 14:27:45,66.004,19.650000000000034,31.0823066,-122.65653329999999,338.0909357507962,199.956540922706,17.591792656587472,6.93952483801296,1012
Jul-15-2019 14:28:00,65.684,19.55000000000001,31.0822333,-122.656505,339.19101471744733,187.1509342015321,18.68034557235421,11.041036717062635,1012
Jul-15-2019 14:28:15,65.12,19.440000000000055,31.08216,-122.65647999999999,337.59246246903234,176.47673047824486,19.38012958963283,17.591792656587472,1012
Jul-15-2019 14:28:30,65.04,19.350000000000023,31.0820716,-122.6564533,337.89040052250044,174.2765725449425,17.6889848812095,18.136069114470843,1012
Jul-15-2019 14:28:45,65.364,19.390000000000043,31.081975,-122.65643999999999,339.4889527709154,172.08214418959145,17.786177105831534,18.73866090712743,1012
Jul-15-2019 14:29:00,66.004,19.380000000000052,31.081899999999997,-122.65641,331.0893914942975,168.74180024397876,18.796976241900648,16.658747300215982,1012
Jul-15-2019 14:29:15,66.408,19.470000000000027,31.081819999999997,-122.65639499999999,325.09052337927784,156.91022177452723,20.079913606911447,18.019438444924404,1012
Jul-15-2019 14:29:30,66.97200000000001,19.58000000000004,31.08174,-122.65638,322.8903654459755,158.25667259308472,18.48596112311015,15.939524838012959,1012
Jul-15-2019 14:29:45,67.532,19.590000000000032,31.0816366,-122.65635329999999,327.49121654087594,164.27845901990963,18.388768898488124,17.591792656587472,1012
Jul-15-2019 14:30:00,67.856,19.440000000000055,31.081564999999998,-122.6563116,335.7933749923216,172.90720341457987,18.796976241900648,18.369330453563716,1012
Jul-15-2019 14:30:15,68.26,19.410000000000025,31.081548299999998,-122.65625,339.09361189227513,179.88009978132195,17.183585313174948,13.568034557235421,1012
Jul-15-2019 14:30:30,68.824,19.510000000000048,31.081541599999998,-122.6562033,340.89269936898586,198.2032900696057,18.19438444924406,11.663066954643629,1012
Jul-15-2019 14:30:45,68.824,19.670000000000016,31.0815466,-122.65617999999999,341.19063742245396,202.20253547961883,16.794816414686828,11.624190064794819,1012
Jul-15-2019 14:31:00,68.66,19.660000000000025,31.0815633,-122.65615659999999,339.3915499457431,197.07456321319796,16.697624190064797,8.941684665226783,1012
Jul-15-2019 14:31:15,68.58,19.560000000000002,31.08156,-122.6561366,338.69254143568355,194.7941911885773,17.28077753779698,9.174946004319654,1012
Jul-15-2019 14:31:30,68.26,19.49000000000001,31.0815366,-122.6561066,335.094366482262,182.85375073805093,16.697624190064797,10.671706263498919,1012
Jul-15-2019 14:31:45,68.096,19.460000000000036,31.081516599999997,-122.65607829999999,334.79069885084266,186.7441341669892,17.786177105831534,12.24622030237581,1012
Jul-15-2019 14:32:00,67.856,19.460000000000036,31.081486599999998,-122.65605,334.1890931659552,189.98707528742966,19.496760259179265,11.799136069114471,1012
Jul-15-2019 14:32:15,67.532,19.560000000000002,31.081448299999998,-122.65602659999999,336.990856784145,202.9531101912402,18.89416846652268,11.31317494600432,1012
Jul-15-2019 14:32:30,67.532,19.630000000000052,31.081435,-122.655985,338.69254143568355,197.45844493593563,17.6889848812095,9.252699784017278,1012
Jul-15-2019 14:32:45,67.696,19.650000000000034,31.081405,-122.65594829999999,339.09361189227513,199.7388169605563,17.49460043196544,8.591792656587474,1012
Jul-15-2019 14:33:00,67.696,19.650000000000034,31.0813833,-122.6559233,342.69178684569675,209.45045158802375,17.6889848812095,12.343412526997842,1012
Jul-15-2019 14:33:15,67.372,19.720000000000027,31.081364999999998,-122.65589999999999,339.89002322750696,207.51958381843286,17.883369330453565,10.613390928725703,1012
Jul-15-2019 14:33:30,67.212,19.690000000000055,31.0813633,-122.65588,341.79224310734133,207.82325144985222,17.591792656587472,12.05183585313175,1012
Jul-15-2019 14:33:45,67.132,19.620000000000005,31.08137,-122.6558666,340.1936908589263,207.15862040750045,17.28077753779698,11.390928725701944,1012
Jul-15-2019 14:34:00,66.97200000000001,19.720000000000027,31.0813816,-122.65585829999999,336.6929187306769,204.87824838287978,17.980561555075592,9.291576673866091,1012
Jul-15-2019 14:34:15,66.808,19.74000000000001,31.08138,-122.65583,341.59170787904554,188.45154839647907,17.6889848812095,7.542116630669546,1012
Jul-15-2019 14:34:30,66.728,19.710000000000036,31.0813816,-122.6558166,334.8938312539662,200.34042264544365,16.892008639308855,8.961123110151188,1012
Jul-15-2019 14:34:45,66.97200000000001,19.650000000000034,31.081364999999998,-122.655805,338.69254143568355,199.27472114650035,15.881209503239742,6.04535637149028,1012
Jul-15-2019 14:35:00,67.292,19.52000000000004,31.081358299999998,-122.6557916,339.4889527709154,196.93705334236657,15.492440604751618,7.503239740820733,1012
Jul-15-2019 14:35:15,67.132,19.58000000000004,31.081329999999998,-122.65576499999999,338.89307666397934,188.1879878107189,15.78401727861771,10.069114470842331,1012
Jul-15-2019 14:35:30,66.648,19.670000000000016,31.0812933,-122.6557366,344.7888123758755,202.29993830479106,17.883369330453565,9.524838012958964,1012
Jul-15-2019 14:35:45,66.164,19.660000000000025,31.081245,-122.65571659999999,341.0932345972817,189.32244424507792,17.6889848812095,8.125269978401727,1012
Jul-15-2019 14:36:00,66.084,19.670000000000016,31.081198299999997,-122.65568999999999,339.19101471744733,192.90916004259688,16.697624190064797,8.26133909287257,1012
Jul-15-2019 14:36:15,66.084,19.630000000000052,31.0811516,-122.655665,340.4916289123944,195.95156593474155,17.786177105831534,11.079913606911447,1012
Jul-15-2019 14:36:30,65.84400000000001,19.57000000000005,31.0811133,-122.6556416,336.990856784145,185.87323831839035,17.49460043196544,11.760259179265658,1012
Jul-15-2019 14:36:45,65.84400000000001,19.440000000000055,31.081045,-122.6556133,337.7929976973282,180.60775618113811,17.883369330453565,13.85961123110151,1012
Jul-15-2019 14:37:00,66.004,19.380000000000052,31.081004999999998,-122.65558329999999,336.0913130457896,178.80293912647602,17.591792656587472,15.628509719222462,1012
Jul-15-2019 14:37:15,66.248,19.370000000000005,31.080985,-122.65554499999999,337.89040052250044,176.72883190810245,15.68682505399568,12.809935205183585,1012
Jul-15-2019 14:37:30,66.808,19.420000000000016,31.080946599999997,-122.65549159999999,337.288794837613,186.89883277167453,16.19222462203024,11.799136069114471,1012
Jul-15-2019 14:37:45,66.97200000000001,19.52000000000004,31.0808933,-122.65543659999999,343.3907953557563,206.4939893651487,15.78401727861771,10.652267818574515,1012
Jul-15-2019 14:38:00,66.892,19.690000000000055,31.0808783,-122.6553816,343.6887334092243,208.934789572406,15.78401727861771,10.652267818574515,1012
Jul-15-2019 14:38:15,66.648,19.79000000000002,31.080863299999997,-122.655345,343.1902601274606,214.12005761833998,16.58099352051836,13.08207343412527,1012
Jul-15-2019 14:38:30,66.728,19.960000000000036,31.0808666,-122.6553283,347.29263794059716,212.73349975412336,14.695464362850972,15.161987041036715,1012
Jul-15-2019 14:38:45,67.132,20.420000000000016,31.0808516,-122.65531,342.39384879222865,210.8026319845325,12.887688984881208,11.701943844492442,1012
Jul-15-2019 14:39:00,67.616,20.370000000000005,31.0808316,-122.65531,344.7888123758755,204.4771779262882,14.792656587473003,8.922246220302377,1012
Jul-15-2019 14:39:15,67.292,19.950000000000045,31.080798299999998,-122.65531499999999,345.8888913425267,202.67809044957744,17.980561555075592,12.110151187904968,1012
Jul-15-2019 14:39:30,66.892,19.760000000000048,31.080769999999998,-122.65531499999999,346.5936294305376,210.67085169165242,17.086393088552917,12.537796976241902,1012
Jul-15-2019 14:39:45,66.648,19.77000000000004,31.0807383,-122.6552983,347.9916464506568,211.81676728191405,17.6889848812095,14.734341252699785,1012
Jul-15-2019 14:40:00,66.728,19.83000000000004,31.080691599999998,-122.65527829999999,344.3934714972353,206.59139219032096,17.49460043196544,9.777537796976242,1012
Jul-15-2019 14:40:15,66.97200000000001,19.840000000000032,31.0806266,-122.6552433,345.39041806076284,211.87406306142714,16.892008639308855,11.721382289416848,1012
Jul-15-2019 14:40:30,67.212,20.000000000000057,31.080563299999998,-122.65518999999999,348.98859301418446,214.44664356156454,13.295896328293736,11.838012958963283,1012
Jul-15-2019 14:40:45,67.532,20.24000000000001,31.080495,-122.65517,346.69103225570984,211.37558977966333,13.995680345572353,12.09071274298056,1012
Jul-15-2019 14:41:00,67.616,20.110000000000014,31.080399999999997,-122.65514329999999,345.09248000729485,215.65558450929055,15.492440604751618,10.730021598272138,1012
Jul-15-2019 14:41:15,67.616,19.99000000000001,31.080295,-122.655115,347.29263794059716,216.98484659399406,16.386609071274297,11.177105831533478,1012
Jul-15-2019 14:41:30,67.452,19.860000000000014,31.080195,-122.6550733,345.2930152355906,212.33242929753177,18.388768898488124,10.924406047516198,1012
Jul-15-2019 14:41:45,66.97200000000001,19.78000000000003,31.080084999999997,-122.655035,345.9920237456503,203.69795532491028,17.883369330453565,9.466522678185745,1012
Jul-15-2019 14:42:00,66.808,19.82000000000005,31.0799816,-122.65499,347.9916464506568,204.76938640180492,17.086393088552917,12.012958963282937,1012
Jul-15-2019 14:42:15,66.808,19.80000000000001,31.079874999999998,-122.65495829999999,347.493173168893,189.14482732858735,17.591792656587472,10.263498920086393,1012
Jul-15-2019 14:42:30,66.408,19.600000000000023,31.079806599999998,-122.6549433,338.89307666397934,190.141773892115,16.892008639308855,10.904967602591794,1012
Jul-15-2019 14:42:45,66.408,19.460000000000036,31.079745,-122.65491159999999,340.7895669658624,191.02412889661647,16.989200863930886,11.079913606911447,1012
Jul-15-2019 14:43:00,66.488,19.510000000000048,31.0796833,-122.6548533,339.7926204023347,199.71016907079974,18.09719222462203,11.02159827213823,1012
Jul-15-2019 14:43:15,66.248,19.660000000000025,31.0796033,-122.65481829999999,342.8923220739925,205.37099208669227,18.29157667386609,11.8963282937365,1012
Jul-15-2019 14:43:30,65.684,19.700000000000045,31.0795283,-122.65477829999999,348.28958450412483,204.56885117350913,17.591792656587472,11.488120950323973,1012
Jul-15-2019 14:43:45,65.684,19.710000000000036,31.0794683,-122.65473159999999,345.2930152355906,198.7705182867852,16.28941684665227,9.758099352051836,1012
Jul-15-2019 14:44:00,66.004,19.720000000000027,31.0794,-122.65468829999999,344.9893476041713,205.7033076078682,14.889848812095034,8.339092872570195,1012
Jul-15-2019 14:44:15,66.248,19.77000000000004,31.0793383,-122.65465999999999,343.4939277588798,199.64714371333537,15.084233261339092,8.55291576673866,1013
Jul-15-2019 14:44:30,65.924,19.80000000000001,31.0792766,-122.65463,341.99277833563707,210.20102629964515,15.181425485961126,9.291576673866091,1013
Jul-15-2019 14:44:45,65.444,19.78000000000003,31.0792316,-122.65460159999999,344.4908743224075,201.0050536877954,15.181425485961126,4.198704103671707,1013
Jul-15-2019 14:45:00,65.444,19.83000000000004,31.0791866,-122.654585,344.594006725531,183.9309113928969,14.889848812095034,4.8401727861771064,1012
Jul-15-2019 14:45:15,65.444,19.750000000000057,31.0791266,-122.65455,343.59133058405206,182.32662956653058,13.995680345572353,7.6781857451403885,1012
Jul-15-2019 14:45:30,65.284,19.700000000000045,31.0790483,-122.65450999999999,345.69408569218217,187.99891173832572,18.29157667386609,5.4233261339092875,1012
Jul-15-2019 14:45:45,65.04,19.82000000000005,31.078965,-122.6544833,345.39041806076284,192.9893741339152,17.49460043196544,6.68682505399568,1012
Jul-15-2019 14:46:00,64.96000000000001,19.840000000000032,31.0788883,-122.65444,344.69140955070327,202.15669885600838,17.786177105831534,9.58315334773218,1012
Jul-15-2019 14:46:15,64.8,19.760000000000048,31.0788083,-122.6544016,347.1895055374737,209.31294171719236,16.58099352051836,11.468682505399569,1012
Jul-15-2019 14:46:30,64.56,19.74000000000001,31.078719999999997,-122.65437329999999,343.6887334092243,193.8946474502219,16.794816414686828,9.077753779697625,1012
Jul-15-2019 14:46:45,64.64,19.670000000000016,31.078625,-122.6543416,344.69140955070327,202.07648476469006,16.989200863930886,10.263498920086393,1012
Jul-15-2019 14:47:00,64.56,19.74000000000001,31.078523299999997,-122.654315,343.88926863752016,198.1402647121413,18.29157667386609,9.54427645788337,1012
Jul-15-2019 14:47:15,64.48,19.850000000000023,31.078433299999997,-122.65429499999999,343.4939277588798,193.87172913841667,17.883369330453565,7.425485961123111,1012
Jul-15-2019 14:47:30,64.4,19.78000000000003,31.078335,-122.65427,344.0898038658159,191.75178529643264,17.49460043196544,6.9978401727861765,1012
Jul-15-2019 14:47:45,64.48,19.590000000000032,31.0782216,-122.6542566,344.7888123758755,186.20555383956628,17.183585313174948,9.330453563714903,1012
Jul-15-2019 14:48:00,64.56,19.510000000000048,31.078116599999998,-122.65424159999999,341.88964593251353,191.62573458150382,17.183585313174948,8.086393088552915,1012
Jul-15-2019 14:48:15,64.4,19.600000000000023,31.078016599999998,-122.6542183,343.4939277588798,205.05586529937034,17.6889848812095,10.710583153347732,1012
Jul-15-2019 14:48:30,64.236,19.630000000000052,31.077924999999997,-122.6541766,342.8923220739925,194.90878274760348,17.591792656587472,9.719222462203023,1012
Jul-15-2019 14:48:45,64.32000000000001,19.660000000000025,31.0778316,-122.65415499999999,343.99240104064364,208.1555669710281,17.183585313174948,9.952483801295896,1012
Jul-15-2019 14:49:00,64.32000000000001,19.760000000000048,31.0777333,-122.65411999999999,344.7888123758755,211.6964461449366,16.28941684665227,10.399568034557236,1012
Jul-15-2019 14:49:15,64.236,19.760000000000048,31.077618299999997,-122.6540733,345.49355046388644,209.28429382743585,17.49460043196544,10.12742980561555,1012
Jul-15-2019 14:49:30,64.48,19.750000000000057,31.077493299999997,-122.6540433,346.79416465883344,195.81405606391016,15.99784017278618,7.347732181425486,1012
Jul-15-2019 14:49:45,64.48,19.810000000000002,31.0773683,-122.65401159999999,347.493173168893,205.82362874484565,16.58099352051836,8.183585313174946,1012
Jul-15-2019 14:50:00,64.48,19.82000000000005,31.077231599999998,-122.6539633,346.4904970274141,212.7621476438799,17.183585313174948,10.76889848812095,1012
Jul-15-2019 14:50:15,64.48,19.840000000000032,31.0771016,-122.6539183,346.69103225570984,210.91149396560735,13.898488120950324,11.196544276457884,1012
Jul-15-2019 14:50:30,65.04,20.340000000000032,31.07698,-122.6538633,345.8888913425267,204.79803429156146,14.481641468682506,6.9978401727861765,1012
Jul-15-2019 14:50:45,65.524,20.79000000000002,31.07685,-122.6538116,349.2922606456038,209.28429382743585,16.794816414686828,6.317494600431965,1012
Jul-15-2019 14:51:00,65.604,20.58000000000004,31.0767183,-122.6537566,349.389663470776,215.1685703834294,16.48380129589633,9.427645788336934,1012
Jul-15-2019 14:51:15,65.84400000000001,20.590000000000032,31.0765766,-122.6536883,348.19218167895264,215.63839577543666,14.987041036717065,7.755939524838013,1012
Jul-15-2019 14:51:30,66.328,20.80000000000001,31.076433299999998,-122.65361659999999,347.791111222361,222.80609779252325,14.987041036717065,5.734341252699784,1012
Jul-15-2019 14:51:45,66.648,20.840000000000032,31.0763116,-122.65357159999999,348.6906549607164,221.71174840382335,16.386609071274297,8.650107991360692,1012
Jul-15-2019 14:52:00,66.728,20.900000000000034,31.076173299999997,-122.653505,348.6906549607164,225.77974874925224,15.78401727861771,6.123110151187905,1012
Jul-15-2019 14:52:15,66.568,20.58000000000004,31.076038299999997,-122.65343159999999,347.59057599406526,228.32368135963307,17.883369330453565,9.136069114470843,1012
Jul-15-2019 14:52:30,66.408,20.30000000000001,31.075893299999997,-122.6533733,347.59057599406526,229.2461434097937,17.183585313174948,9.60259179265659,1012
Jul-15-2019 14:52:45,66.97200000000001,20.410000000000025,31.075744999999998,-122.65329659999999,348.08904927582904,223.15560204755303,16.892008639308855,3.809935205183585,1012
Jul-15-2019 14:53:00,67.532,20.340000000000032,31.075596599999997,-122.65322499999999,352.288829914138,226.41573190184744,17.28077753779698,10.360691144708424,1012
Jul-15-2019 14:53:15,68.016,20.170000000000016,31.075454999999998,-122.6531466,345.9920237456503,205.13607939068865,14.792656587473003,6.861771058315335,1012
Jul-15-2019 14:53:30,68.904,20.410000000000025,31.0753183,-122.65307829999999,347.0921027123014,204.2766426979924,13.898488120950324,3.673866090712743,1012
Jul-15-2019 14:53:45,69.06400000000001,20.610000000000014,31.075194999999997,-122.6530133,349.09172541730806,206.24761751324246,14.481641468682506,9.933045356371492,1013
Jul-15-2019 14:54:00,68.016,20.350000000000023,31.0750583,-122.65293829999999,343.4939277588798,214.48675060722368,14.59827213822894,11.585313174946004,1012
Jul-15-2019 14:54:15,67.452,20.120000000000005,31.074925,-122.65287,347.0921027123014,224.33016552757124,13.995680345572353,5.462203023758099,1012
Jul-15-2019 14:54:30,67.532,20.370000000000005,31.074785,-122.65280659999999,348.98859301418446,213.26635050359505,14.889848812095034,3.8488120950323976,1013
Jul-15-2019 14:54:45,67.696,20.32000000000005,31.0746266,-122.65274,343.6887334092243,205.50277237957238,15.492440604751618,8.941684665226783,1013
Jul-15-2019 14:55:00,67.052,19.810000000000002,31.0744816,-122.6527,344.9893476041713,196.12345327328077,16.58099352051836,7.833693304535638,1013
Jul-15-2019 14:55:15,66.568,19.650000000000034,31.0743433,-122.6526866,343.4939277588798,182.93396482936927,16.386609071274297,10.885529157667388,1013
Jul-15-2019 14:55:30,65.924,19.400000000000034,31.07423,-122.6526933,337.993532925624,169.52102284535667,15.589632829373649,14.539956803455723,1013
Jul-15-2019 14:55:45,65.684,19.410000000000025,31.0741016,-122.652705,340.99010219415817,169.01681998564155,16.892008639308855,15.745140388768897,1012
Jul-15-2019 14:56:00,65.604,19.420000000000016,31.073984999999997,-122.6526816,336.0913130457896,171.57794132987632,16.989200863930886,14.870410367170626,1012
Jul-15-2019 14:56:15,65.84400000000001,19.400000000000034,31.07387,-122.65267329999999,334.49276079737456,174.94693316524558,17.183585313174948,13.295896328293736,1012
Jul-15-2019 14:56:30,66.084,19.340000000000032,31.073758299999998,-122.65265,336.6929187306769,184.36635931719627,15.39524838012959,9.933045356371492,1012
Jul-15-2019 14:56:45,66.568,19.410000000000025,31.073639999999997,-122.652605,339.99315563063055,191.62000500355254,13.995680345572353,4.568034557235421,1012
Jul-15-2019 14:57:00,66.648,19.600000000000023,31.073565,-122.65257829999999,343.88926863752016,207.3820739476015,15.881209503239742,7.639308855291577,1013
Jul-15-2019 14:57:15,66.248,19.750000000000057,31.0734733,-122.65253999999999,341.3911726507497,212.33242929753177,16.19222462203024,5.695464362850972,1013
Jul-15-2019 14:57:30,66.164,19.83000000000004,31.073398299999997,-122.65253159999999,340.7895669658624,199.9278930329495,15.78401727861771,4.490280777537797,1012
Jul-15-2019 14:57:45,66.084,19.77000000000004,31.073314999999997,-122.65250999999999,341.88964593251353,203.83546519574168,16.697624190064797,7.4838012958963285,1012
Jul-15-2019 14:58:00,65.604,19.720000000000027,31.073234999999997,-122.652485,342.39384879222865,198.22620838141094,16.28941684665227,6.745140388768899,1012
Jul-15-2019 14:58:15,65.604,19.720000000000027,31.0731583,-122.6524816,343.3907953557563,191.4710359768185,15.68682505399568,6.784017278617711,1012
Jul-15-2019 14:58:30,65.524,19.670000000000016,31.073075,-122.65245329999999,341.2937698255775,199.79038316211805,15.39524838012959,5.676025917926565,1012
Jul-15-2019 14:58:45,65.364,19.670000000000016,31.072985,-122.65243,341.59170787904554,194.5249010248658,16.28941684665227,6.181425485961123,1012
Jul-15-2019 14:59:00,65.12,19.650000000000034,31.072893299999997,-122.65240159999999,342.8923220739925,199.72735780465368,14.987041036717065,6.861771058315335,1012
Jul-15-2019 14:59:15,65.12,19.720000000000027,31.072809999999997,-122.6523666,340.99010219415817,199.83621978572853,16.386609071274297,7.833693304535638,1012
Jul-15-2019 14:59:30,64.8,19.750000000000057,31.0726916,-122.65232329999999,344.7888123758755,204.2766426979924,16.19222462203024,9.60259179265659,1012
Jul-15-2019 14:59:45,64.64,19.730000000000018,31.072586599999998,-122.6522816,341.3911726507497,202.87862567787323,16.19222462203024,9.874730021598273,1012
Jul-15-2019 15:00:00,64.72,19.630000000000052,31.072506599999997,-122.652245,343.0928573022882,212.32669971958046,15.99784017278618,8.26133909287257,1012
Jul-15-2019 15:00:15,64.72,19.660000000000025,31.072448299999998,-122.65223999999999,340.0905584558028,197.1948843501754,15.39524838012959,8.339092872570195,1013
Jul-15-2019 15:00:30,64.8,19.630000000000052,31.0723766,-122.652215,342.2907163891051,206.02989355109275,16.28941684665227,10.96328293736501,1012
Jul-15-2019 15:00:45,64.64,19.690000000000055,31.072303299999998,-122.65218159999999,344.69140955070327,206.9122485555942,16.892008639308855,11.332613390928726,1012
Jul-15-2019 15:01:00,64.48,19.640000000000043,31.0722216,-122.65216,339.68948799921117,187.58065254788022,17.883369330453565,11.682505399568033,1013
Jul-15-2019 15:01:15,64.156,19.670000000000016,31.0721383,-122.65213159999999,341.6891107042178,199.6013070897249,15.084233261339092,6.278617710583153,1012